STARLINK-1335, 45581

Orbit data source: Space-Track

STARLINK-1335, 45581 is a payload satellite owned by SpaceX/Seattle (US) in LEO that was launched on Wed, 22 Apr 2020 UTC via an FALCON 9 launch vehicle from the Air Force Eastern Test Range (AFETR). Payload-class satellites include a variety of spacecraft equipped with specific instruments for various scientific and technological missions. These include communications satellites like Starlink; space stations such as the ISS; scientific satellites like the Hubble; Earth observation satellites from companies like Planet Labs, Umbra, and HawkEye 360; GPS; miniature CubeSats for education and research; and military/defense satellites.

Loading next visibility...
Identifier
45581, 2020-025BC
Orbit
LEO
Country
Flag of USUS
Related business
Manufacturer
SpaceX/Seattle
Mission
Partially operational Commercial Communications
Bus & Motor
STARLINK, Unknown motor
Mass
260 kg wet, ~248 kg dry
Launch date (UTC)
2020-04-22 (6 years ago)
Launch vehicle
FALCON 9
Launch site
Air Force Eastern Test Range (AFETR)
Object type
Payload
Rocket body
Debris
Shape & HBR
Box + 1 Pan, 10.1 m
Radar Cross Section
13.562 m², Large (>1 m²)

Expand to show TLE details & history
Last TLE update: 5 hours ago

TLE from 5 hours ago
0 STARLINK-1335
1 45581U 20025BC  26266.30044019  .00055424  00000-0  10777-2 0  9999
2 45581  53.1485 226.6096 0006038  88.1806 271.9893 15.47071535355932
Epoch: 2026-09-23T07:12Z
TLE epoch observation values (Epoch: 2026-09-23T07:12:38.032Z)
Latitude
-0.00005°
Longitude
116.29755°
Altitude
426.063 km
Speed
7.657 km/s
True Right ascension
15h 06m 26s
True Declination
0° 00' 00"
Sunlit
Object was in daylight at epoch
Visualization orbit readout
Latitude
Unknown
Longitude
Unknown
Altitude
Unknown
Speed
Unknown
Apparent Right ascension
Unknown
Apparent Declination
Unknown
Sunlit
N/A
Visualization observer readout
Local Sidereal Time
04:58:05
Azimuth
Unknown
Elevation
Unknown
Doppler factor
Unknown
Orbital elements
Apogee altitude
429.666 km
Perigee altitude
421.45 km
Semi-major axis
6,803.695 km
Eccentricity
0.0006
Inclination
53.1485°
RAAN
226.6096°
Arg. of periapsis
88.1806°
True anomaly
271.92015°
Mean anomaly
271.9893°
Eccentric anomaly
271.95472°
Mean motion
3.86746 °/min
Orbital period
93.08 mins
BSTAR
0.0010777
Loading maneuver chart data...
Computing Atmospheric mass density...

Documentation

Showing up to 5 results
|